Location: Arrecife
(10.5858°N, 67.0742°W)
Time: 00:11:59
(UTC+00:00)

Hubble Space Telescope - Pass Details

Date: 02 December 2022
Orbit: 529 x 532 km, 28.5° (Epoch: 06 February)

Event Time Altitude Azimuth Distance (km) Brightness Sun altitude
Exits shadow 09:20:12 - 223° (SW) 1,861 3.3 -17.2°
Reaches altitude 10° 09:20:29 10° 222° (SW) 1,760 3.2 -17.1°
Maximum altitude 09:24:20 42° 150° (SSE) 749 1.9 -16.2°
Drops below altitude 10° 09:28:12 10° 78° (ENE) 1,757 4.3 -15.3°
Sets 09:30:32 0° 71° (ENE) 2,645 5.2 -14.8°
